Lapse_Rate
6.9 6.8 6.9 7.0 7.0 7.1 7.2 7.4 7.5 7.4 7.2 7.1 7.2 7.2 7.0 6.7 6.5 6.7 6.7 7.1 7.1 7.3 7.3 7.3 7.2 7.0 7.1 7.3 7.3 7.5 8.1 7.2 7.4 7.7 7.1 6.8 7.4 7.7 7.8 7.6 7.1 6.6 7.0 7.3 7.4 7.4 7.3 8.2 8.4 8.4 8.2 8.8 9.1 9.2
6.9 6.7 6.8 6.8 7.2 7.1 7.3 7.5 7.4 7.4 7.1 7.1 7.1 7.1 7.1 7.0 7.0 6.8 6.9 7.2 7.0 6.9 7.2 7.3 7.4 7.4 7.1 7.4 7.7 7.8 7.7 6.9 7.1 7.5 7.1 7.2 8.1 8.3 7.8 7.7 8.0 7.5 6.6 7.3 7.8 7.5 7.8 8.3 8.4 8.6 8.6 8.8 8.9 8.8
6.9 6.8 6.9 6.8 7.1 7.4 7.4 7.5 7.5 7.1 7.2 7.1 7.3 7.1 7.0 7.2 7.1 7.1 7.2 7.1 7.5 6.9 7.2 7.1 7.1 7.2 7.3 7.0 7.2 7.4 7.1 7.3 7.1 7.5 7.6 7.6 7.8 7.9 7.7 7.6 8.1 7.2 7.3 6.7 6.8 7.7 8.0 8.2 8.1 8.4 8.5 8.8 8.6 8.7
6.9 6.9 6.7 6.7 6.9 6.9 7.3 7.3 7.1 6.9 7.0 7.0 6.8 6.8 7.2 7.2 7.2 7.1 7.1 6.9 7.0 7.3 7.0 7.0 7.1 7.2 7.4 7.2 7.0 7.1 7.3 7.5 7.5 7.5 7.3 7.1 7.2 7.8 7.6 8.0 8.0 8.3 7.6 7.4 7.1 6.3 6.9 7.5 7.8 8.1 8.0 8.4 8.6 8.6
6.9 6.8 6.6 6.8 7.1 6.9 7.1 6.8 6.7 6.9 6.9 6.8 6.7 6.7 6.9 6.7 6.8 6.8 6.9 7.0 7.0 7.2 7.2 7.1 7.0 6.9 6.8 6.6 6.7 6.8 7.3 6.9 6.4 6.8 6.9 6.8 7.0 7.9 7.9 7.6 7.2 7.9 7.8 7.6 7.5 7.7 7.9 7.7 7.7 7.5 7.9 8.4 8.4 8.2
6.6 6.8 6.8 6.8 6.8 6.8 7.1 7.1 7.1 7.0 7.1 7.1 6.7 7.0 6.8 6.9 6.9 7.0 7.0 7.0 7.2 7.2 7.1 7.0 6.9 6.8 6.6 6.7 6.6 6.8 7.4 7.2 7.1 7.1 7.2 6.7 6.8 7.3 7.4 7.0 7.4 7.6 7.8 7.8 7.7 7.7 7.8 7.5 7.3 7.9 7.9 7.9 8.0 7.8
6.6 6.7 6.8 6.8 6.9 6.9 6.9 6.9 7.0 7.0 7.0 7.0 6.7 6.7 7.0 6.8 6.8 6.9 7.0 7.3 7.0 6.9 6.7 6.6 6.3 6.5 6.2 6.3 6.5 7.2 7.4 7.3 6.8 6.7 6.5 6.7 6.9 7.2 7.1 6.8 7.4 7.6 7.8 7.8 7.7 7.7 7.6 7.6 7.6 7.5 7.9 7.8 7.8 7.7
6.1 6.6 6.7 6.8 6.8 6.9 6.9 6.9 6.9 7.0 6.9 6.7 6.5 6.8 6.6 6.7 6.8 6.9 7.2 6.9 6.8 6.7 6.4 6.5 6.0 6.1 6.4 6.6 6.7 6.8 7.1 6.9 6.7 6.3 6.8 7.0 7.3 7.1 6.8 6.9 7.3 7.9 7.6 7.6 7.5 7.4 7.2 7.3 7.3 7.5 7.4 7.5 7.8 7.7
5.8 6.0 6.3 6.5 6.7 6.7 6.8 6.8 6.7 6.7 6.7 6.6 6.7 6.7 6.7 6.7 6.6 6.8 7.0 6.9 6.6 6.5 6.1 5.9 6.2 6.2 6.6 7.3 7.0 7.0 6.9 6.6 6.7 6.7 6.9 6.8 6.9 6.8 6.8 7.2 7.2 6.7 6.7 6.6 6.7 6.7 6.8 6.7 6.5 6.8 6.9 6.9 6.8 6.8
5.8 5.7 5.8 5.9 6.1 6.2 6.3 6.3 6.4 6.5 6.6 6.4 6.4 6.5 6.8 6.7 6.7 6.6 6.4 6.3 6.1 5.8 5.7 6.0 6.3 6.5 6.7 6.8 6.7 6.9 6.9 6.7 6.8 7.2 6.9 6.5 6.7 6.8 6.8 7.0 7.1 7.2 6.9 6.6 6.3 6.5 6.7 6.5 6.3 6.3 6.3 6.3 6.3 6.6
5.9 5.6 5.6 5.7 5.8 5.9 5.9 5.8 5.8 5.9 6.0 6.1 6.1 6.1 5.9 6.0 5.9 6.2 6.0 5.9 6.0 5.8 5.9 6.1 6.3 6.8 6.8 6.8 7.1 6.9 6.8 6.9 6.8 6.8 6.9 6.8 6.7 6.4 6.6 6.8 6.9 6.7 6.5 6.4 6.4 6.1 6.1 6.1 6.0 5.8 6.0 6.3 6.3 6.4
5.8 5.8 5.6 5.7 5.7 5.7 5.7 5.6 5.7 5.8 6.0 6.2 6.3 6.1 6.0 6.1 6.3 6.3 6.1 6.1 6.0 6.2 6.2 6.3 6.9 7.1 6.7 6.8 6.9 6.9 6.8 6.7 7.1 7.4 7.3 6.8 6.4 6.5 6.6 6.7 6.7 6.6 6.4 6.1 6.0 5.8 5.7 5.8 5.7 5.7 5.9 6.1 6.2 6.0
5.6 5.6 5.4 5.4 5.5 5.4 5.4 5.4 5.4 5.7 5.9 6.2 6.1 6.4 6.4 6.3 6.4 6.5 6.3 6.1 6.3 6.4 6.8 6.9 7.2 7.2 7.1 6.6 7.1 6.9 7.2 6.9 7.0 7.1 6.8 6.0 6.1 5.9 5.8 6.0 6.4 6.2 5.9 5.8 5.8 5.7 5.7 5.6 5.8 5.8 5.9 5.9 5.6 5.8
5.8 5.7 5.7 5.7 5.8 5.9 5.9 5.9 6.1 6.2 6.3 6.6 6.9 6.7 7.1 6.8 6.5 6.5 6.3 6.3 6.3 6.3 6.5 6.6 6.8 6.6 6.7 6.5 6.5 6.9 6.8 6.7 6.8 6.0 5.1 5.3 5.5 5.7 5.8 5.7 6.0 6.2 6.1 6.0 5.9 5.9 5.9 5.7 5.6 5.7 5.8 5.7 5.5 5.4
5.7 5.7 5.8 5.8 5.9 5.8 5.8 6.0 6.2 6.6 7.0 7.0 6.9 6.8 6.6 6.8 7.1 7.4 7.5 7.0 6.6 6.1 6.0 6.2 6.9 7.0 7.0 6.5 6.5 6.7 6.9 5.5 4.9 4.3 4.5 4.7 5.4 5.5 5.4 5.7 5.8 5.8 5.7 5.6 5.5 5.4 5.3 5.4 5.4 5.5 5.5 5.3 4.9 4.6
5.6 5.6 5.7 5.8 5.8 6.0 6.3 6.5 6.6 7.1 7.5 7.2 6.7 6.5 6.6 7.0 7.3 7.5 7.7 7.4 7.0 5.9 6.1 6.3 6.6 6.7 6.5 6.2 6.2 5.7 5.1 3.9 3.4 3.9 4.6 5.0 4.9 5.0 5.1 5.1 5.3 5.4 5.5 5.4 5.3 5.2 5.1 4.9 4.7 4.7 4.5 4.2 4.0 3.9
5.4 5.3 5.3 5.4 5.4 5.5 5.8 6.0 6.3 6.4 6.3 6.0 5.3 5.9 6.1 6.3 6.8 6.9 7.3 7.2 6.3 6.6 6.8 6.7 6.7 6.3 5.8 5.6 4.5 4.0 3.3 3.3 3.8 4.0 4.3 4.4 4.4 4.5 4.6 4.7 4.7 4.7 4.8 4.7 4.6 4.4 4.2 4.0 3.9 3.8 3.8 3.9 3.8 3.8
5.0 5.1 5.5 5.6 5.5 5.5 5.6 5.7 5.6 5.5 5.2 4.5 4.4 5.0 5.4 5.8 6.2 6.3 5.9 6.2 6.2 6.5 6.5 6.6 6.5 6.3 5.7 4.4 3.8 3.4 3.0 3.3 3.6 3.9 3.8 3.8 4.0 4.2 4.3 4.3 4.4 4.4 4.5 4.4 4.3 4.2 4.1 4.0 3.9 4.0 3.9 3.9 3.7 3.7
5.1 5.3 5.4 5.4 5.4 5.5 5.7 5.7 5.6 5.1 4.5 4.0 3.6 4.1 4.5 4.9 5.5 5.9 5.9 6.1 6.2 6.2 6.3 6.3 6.0 5.3 4.5 3.8 3.0 2.9 3.1 3.5 3.5 3.6 3.7 4.0 4.0 3.8 3.9 4.0 4.0 4.0 4.0 4.0 3.9 4.0 3.9 3.9 3.9 3.9 3.8 3.7 3.6 3.6
5.5 5.5 5.4 5.3 5.4 5.8 5.6 5.1 5.2 4.7 4.5 4.6 4.5 4.3 4.5 4.7 5.2 5.5 5.6 5.9 6.0 5.9 5.6 5.1 4.3 3.6 3.4 3.3 3.3 3.4 3.6 3.6 3.7 3.7 3.7 3.6 3.6 3.7 3.7 3.7 3.7 3.7 3.7 3.7 3.7 3.7 3.7 3.6 3.6 3.6 3.6 3.7 3.7 3.7
5.5 5.6 5.5 5.6 5.8 6.3 5.5 5.2 5.0 5.0 4.7 4.3 4.5 5.2 5.5 5.4 5.8 6.1 6.5 6.6 6.2 6.1 4.9 4.0 3.8 3.8 3.8 3.7 3.6 3.6 3.6 3.7 3.8 3.8 3.9 3.8 3.7 3.7 3.7 3.7 3.7 3.7 3.7 3.7 3.7 3.7 3.7 3.7 3.8 3.8 3.8 3.9 3.9 3.9
5.7 5.8 5.9 5.8 6.4 6.1 5.5 5.3 5.2 5.3 5.1 5.0 5.3 5.6 5.6 5.7 5.8 6.1 5.9 6.4 5.8 4.5 4.5 4.2 4.3 4.2 4.1 4.0 3.9 3.8 3.7 3.6 3.7 4.0 4.1 4.2 4.3 4.3 4.2 4.1 3.9 3.9 4.0 4.0 4.0 4.1 4.1 4.2 4.3 4.5 4.5 4.5 4.4 4.4
6.3 6.3 6.5 6.8 6.5 5.7 5.6 5.7 5.5 5.2 4.8 5.0 5.2 5.3 5.3 5.4 5.5 5.1 5.6 4.9 4.3 3.8 3.6 3.6 3.6 3.7 3.7 3.8 3.7 3.7 3.7 3.7 3.8 3.9 4.0 4.0 4.2 4.2 4.4 4.5 4.6 4.5 4.6 4.6 4.5 4.7 4.9 4.9 4.9 4.9 4.8 4.8 4.9 4.9
6.7 6.9 7.1 6.9 6.5 6.3 6.0 6.1 6.0 5.8 5.6 5.5 5.4 5.2 5.2 5.0 4.8 4.8 4.4 3.6 3.5 3.4 3.5 3.5 3.5 3.5 3.5 3.5 3.6 3.7 3.7 3.7 3.7 3.8 4.0 4.2 4.4 4.6 4.7 4.7 4.8 4.8 5.0 5.2 5.1 5.1 5.1 5.1 5.1 5.0 5.0 4.9 4.9 4.8
7.2 7.2 7.1 7.0 6.8 6.5 6.3 6.1 6.1 6.0 5.8 5.6 5.5 5.2 5.0 4.8 5.0 4.1 3.9 3.5 3.5 3.5 3.5 3.6 3.6 3.6 3.6 3.7 3.9 4.0 4.2 4.4 4.7 5.1 5.4 5.6 5.7 5.6 5.5 5.7 5.7 5.6 5.6 5.5 5.5 5.4 5.4 5.3 5.3 5.2 5.1 5.0 4.9 4.9
7.2 7.3 7.2 7.1 6.8 6.8 6.4 6.2 6.1 6.0 5.8 5.6 5.3 5.1 5.1 5.0 4.5 4.1 4.2 4.1 3.8 3.7 3.6 3.7 3.9 4.3 4.8 5.3 5.5 5.7 5.7 5.8 6.0 6.2 5.9 5.9 5.9 6.0 6.0 5.9 5.9 5.9 5.8 5.7 5.7 5.6 5.5 5.3 5.2 5.1 5.1 5.1 5.0 5.0
7.1 6.9 7.2 7.2 7.1 6.9 6.5 6.2 6.0 6.0 5.8 5.5 5.3 5.2 5.1 4.9 4.9 4.8 4.7 4.4 4.2 4.0 4.3 4.9 5.4 5.8 5.9 5.9 6.0 6.1 6.1 6.1 6.1 6.1 6.2 6.2 6.1 6.0 6.0 5.9 5.9 5.8 5.7 5.6 5.5 5.4 5.3 5.3 5.2 5.2 5.2 5.1 5.1 5.1
6.9 6.5 6.9 6.7 6.8 6.6 6.4 6.3 6.1 5.8 5.7 5.5 5.4 5.4 5.4 5.4 5.4 5.2 5.0 4.9 5.1 5.5 5.7 5.8 5.8 5.9 6.0 6.1 6.1 6.2 6.3 6.3 6.2 6.2 6.2 6.2 6.1 6.0 5.9 5.8 5.7 5.6 5.5 5.4 5.3 5.3 5.3 5.3 5.4 5.4 5.4 5.3 5.2 5.2
6.7 6.6 6.5 6.4 6.5 6.5 6.3 6.0 5.9 5.7 5.7 5.8 5.8 5.7 5.6 5.5 5.6 5.7 6.0 5.8 5.7 5.7 5.7 5.9 6.0 6.1 6.3 6.4 6.4 6.4 6.4 6.5 6.5 6.5 6.4 6.3 6.1 6.0 5.9 5.8 5.7 5.6 5.5 5.4 5.5 5.5 5.5 5.5 5.5 5.4 5.3 5.3 5.2 5.1
6.5 6.5 6.4 6.3 6.4 6.1 6.0 5.9 5.9 5.9 5.9 5.9 5.8 5.8 5.8 6.0 6.2 6.3 6.1 5.9 6.0 6.1 6.1 6.2 6.3 6.4 6.4 6.4 6.4 6.5 6.5 6.5 6.4 6.3 6.1 6.0 5.9 5.8 5.8 5.7 5.6 5.5 5.5 5.6 5.7 5.6 5.5 5.5 5.4 5.3 5.3 5.2 5.2 5.2
6.4 6.3 6.3 6.2 6.2 6.0 5.9 5.9 5.9 5.9 5.9 5.9 6.0 6.1 6.3 6.4 6.3 6.1 6.1 6.3 6.3 6.3 6.3 6.4 6.3 6.2 6.2 6.3 6.3 6.3 6.3 6.2 6.2 6.1 6.0 5.9 5.8 5.7 5.6 5.6 5.7 5.7 5.7 5.7 5.7 5.6 5.5 5.4 5.3 5.3 5.3 5.3 5.2 5.3
6.3 6.2 6.2 6.2 6.1 6.0 6.0 6.0 6.0 6.1 6.2 6.4 6.5 6.6 6.5 6.5 6.4 6.4 6.5 6.5 6.4 6.3 6.2 6.2 6.1 6.0 6.1 6.1 6.1 6.1 6.1 6.0 6.0 5.9 5.8 5.7 5.7 5.7 5.7 5.7 5.7 5.7 5.7 5.6 5.6 5.4 5.3 5.3 5.3 5.3 5.3 5.3 5.3 5.3
6.2 6.2 6.1 6.1 6.1 6.1 6.2 6.3 6.5 6.6 6.9 6.9 6.7 6.6 6.5 6.5 6.5 6.5 6.4 6.3 6.1 6.0 5.9 5.9 5.9 6.0 6.0 6.1 6.1 6.1 6.1 6.0 5.9 5.8 5.7 5.7 5.6 5.6 5.6 5.6 5.6 5.6 5.6 5.5 5.3 5.3 5.3 5.4 5.4 5.4 5.4 5.4 5.4 5.4
Wind_Speed
27 27 29 25 22 23 27 30 29 28 29 31 36 37 33 33 33 16 7 11 7 3 5 3 15 12 18 16 15 15 13 3 11 9 7 6 5 7 8 14 13 13 7 7 5 7 13 3 6 19 8 6 6 9
24 27 19 13 15 15 16 6 25 29 26 25 33 35 35 34 34 22 6 10 1 2 2 2 10 11 19 22 10 10 14 10 9 7 6 6 3 2 7 8 12 10 13 8 7 7 6 6 6 4 6 5 5 7
23 25 14 14 15 15 16 21 24 25 26 24 30 32 34 33 30 9 10 10 4 3 2 4 9 8 6 1 4 7 9 6 14 8 4 4 3 5 4 6 8 11 10 4 10 12 6 5 6 5 5 5 7 7
22 25 18 14 17 16 18 20 23 25 24 27 29 32 33 34 27 8 12 7 4 6 2 2 6 4 2 2 5 3 4 5 5 7 6 3 4 6 5 7 9 8 12 12 13 20 7 13 8 3 5 7 6 5
22 22 21 15 14 17 18 19 21 24 26 27 27 28 33 33 19 7 7 5 3 4 1 4 7 6 5 4 4 5 5 10 4 11 3 6 6 4 0 3 5 7 7 4 3 5 3 2 7 8 6 8 12 7
22 20 24 22 19 21 23 21 24 26 28 30 28 27 32 30 15 3 3 3 3 3 1 4 3 6 6 6 7 8 3 5 5 4 5 5 7 5 2 5 11 11 11 12 8 6 6 3 3 2 4 9 10 5
23 20 23 25 27 28 28 26 24 31 33 31 28 32 31 26 8 2 2 9 12 10 2 2 4 7 8 7 5 4 4 2 4 3 4 6 7 8 5 6 8 10 10 8 7 6 6 4 2 5 4 7 7 7
21 22 21 21 24 28 29 31 33 34 32 28 26 23 20 19 9 4 6 9 3 2 2 1 1 3 8 4 3 5 3 5 4 3 3 6 6 4 3 8 12 14 16 14 13 10 4 4 2 3 2 4 4 4
18 20 19 20 22 21 25 31 34 32 30 25 22 20 6 3 3 4 4 4 3 2 3 2 1 1 2 4 2 5 6 6 3 1 2 3 3 4 3 5 7 13 8 10 11 7 9 5 5 4 4 3 5 4
16 18 20 19 23 26 25 24 24 23 20 18 4 5 4 3 12 5 5 2 0 1 2 1 3 1 4 2 2 2 2 2 4 5 2 4 4 5 15 12 12 12 11 10 7 8 9 6 4 5 5 3 2 6
15 15 18 20 20 20 19 18 15 11 9 2 4 4 8 4 2 1 2 2 2 1 3 4 6 3 3 2 1 3 2 2 5 5 7 4 2 6 15 13 13 15 14 12 8 6 6 5 4 9 14 16 17 18
15 16 20 21 17 15 12 9 9 2 4 3 8 6 2 1 3 3 2 2 2 3 5 4 3 3 2 1 1 2 2 2 5 4 4 3 3 8 10 10 11 11 12 14 16 16 17 17 16 16 15 15 16 17
17 18 17 14 12 9 10 10 9 6 2 2 2 4 1 2 3 2 5 3 2 2 1 4 3 3 3 2 0 2 3 4 1 3 3 3 7 7 8 8 10 11 13 14 16 15 16 17 16 17 16 14 16 16
17 14 12 11 10 10 11 10 9 5 3 4 3 5 4 4 5 5 5 4 3 4 6 4 2 2 2 3 3 3 2 2 3 3 4 6 8 7 9 8 9 11 12 14 14 14 16 16 15 16 15 14 16 17
16 14 11 10 9 9 8 7 9 5 4 5 5 5 6 4 5 5 6 3 4 6 4 1 1 3 3 3 2 3 2 4 6 4 4 7 8 8 8 8 9 10 10 12 13 14 15 16 16 17 16 16 17 16
14 10 4 6 10 9 8 4 5 5 3 4 7 4 8 3 7 7 7 4 4 6 4 1 3 3 2 2 4 7 4 6 4 4 7 7 9 9 9 10 11 12 13 14 14 15 16 17 17 18 17 16 15 15
6 3 4 4 6 12 10 3 4 6 5 4 4 7 7 4 7 6 7 7 5 3 2 3 5 4 3 3 4 5 4 5 7 7 8 10 10 10 10 11 11 12 14 14 15 15 15 15 16 16 17 15 15 15
3 4 4 8 6 5 4 4 4 5 7 6 3 7 7 5 7 7 6 8 5 3 3 4 4 7 6 5 4 5 4 7 8 8 8 10 13 13 11 13 13 14 14 14 14 14 13 13 14 11 13 13 12 12
7 5 6 9 6 2 3 4 4 4 4 3 4 5 3 5 8 8 8 7 7 6 4 4 6 4 4 4 6 6 5 7 7 8 9 13 13 13 13 14 15 15 15 15 14 11 11 15 11 9 9 9 8 7
14 8 8 9 8 3 4 3 3 4 3 2 4 6 5 6 7 7 9 7 7 4 6 5 5 5 3 4 5 5 4 6 7 8 9 8 9 12 12 10 9 12 11 13 12 13 10 10 10 10 10 10 8 8
5 4 6 5 3 6 4 3 4 3 4 2 3 6 5 6 11 11 10 8 7 4 5 5 6 6 7 8 7 7 9 9 8 7 8 8 8 8 9 9 10 9 9 9 9 10 11 9 8 8 8 8 7 7
1 2 3 6 3 4 4 6 3 3 3 3 5 5 4 7 7 8 8 10 6 7 5 7 8 8 10 12 10 11 11 12 12 10 12 10 8 8 8 7 8 9 9 9 8 8 8 8 7 8 7 7 8 7
0 2 3 4 4 5 3 2 4 4 3 2 3 4 4 4 4 5 4 6 5 7 7 8 10 11 11 11 12 14 12 12 9 9 9 8 8 8 8 8 8 8 8 8 7 7 7 8 9 7 7 7 6 6
7 4 5 4 5 4 2 3 3 3 3 3 3 3 4 3 3 4 4 3 5 6 7 7 6 7 8 11 10 9 8 7 8 8 8 8 8 9 9 8 8 7 7 7 7 7 6 6 8 7 7 7 6 6
5 7 4 7 4 3 4 3 3 3 4 4 3 4 3 2 3 3 3 3 5 6 6 7 8 7 7 8 7 8 10 8 7 8 8 6 6 7 7 8 8 8 7 6 7 7 6 6 6 6 7 6 7 7
7 8 5 5 4 4 4 3 3 4 3 3 4 2 2 3 3 4 3 5 5 5 6 5 6 6 7 7 7 6 7 6 7 8 8 8 8 6 6 6 6 7 7 6 6 6 6 6 6 7 6 7 6 6
5 5 5 4 3 4 5 5 5 5 5 5 3 3 2 3 4 3 4 5 5 4 5 6 6 6 7 7 7 6 6 7 7 7 7 7 8 8 7 5 6 5 6 7 6 6 6 6 5 5 5 6 5 5
5 5 5 5 6 7 4 4 4 5 4 4 1 4 3 4 3 3 3 5 5 5 5 6 7 7 7 6 5 4 5 5 5 6 7 8 7 6 7 5 4 4 5 6 6 5 5 5 5 5 4 4 3 3
5 4 4 6 5 6 7 5 4 3 4 4 2 3 3 3 3 4 5 4 4 4 5 5 5 5 5 6 6 6 6 6 3 3 3 4 4 5 4 4 4 3 4 4 5 5 4 3 3 3 4 4 4 4
4 3 4 6 5 5 5 5 5 3 5 6 5 7 7 4 4 3 3 2 3 5 5 4 3 4 3 4 4 5 6 6 6 5 3 5 3 3 3 4 4 3 3 4 4 2 4 2 1 0 2 3 4 5
3 3 5 5 4 5 5 5 6 7 6 7 7 7 5 3 2 4 4 4 4 3 4 4 3 3 3 3 3 2 4 4 5 6 5 3 3 4 3 3 4 4 3 3 3 3 4 4 4 3 4 4 3 4
4 4 4 4 4 3 3 2 2 3 2 3 3 3 3 4 3 3 2 1 2 3 3 2 3 5 4 3 4 4 5 4 4 2 4 4 4 4 3 3 2 3 3 4 3 3 3 4 5 5 5 6 5 6
7 7 7 5 4 3 2 2 2 2 2 2 2 2 3 3 3 3 1 2 4 3 4 4 5 5 4 4 4 3 2 7 6 6 6 5 4 5 6 6 5 5 3 4 4 4 4 5 5 6 6 6 6 6
Wind_Direction
317 313 303 293 289 284 278 259 233 207 194 189 190 189 188 182 165 167 159 187 206 176 128 165 220 221 204 211 205 199 203 253 210 176 179 209 217 220 227 200 171 197 214 220 222 241 245 342 226 217 227 226 270 286
328 330 336 332 331 334 346 92 157 158 158 169 182 182 174 169 163 165 162 176 201 109 165 176 248 261 260 218 217 197 193 184 212 186 202 203 269 148 201 225 194 189 224 219 199 204 186 201 234 285 332 344 298 327
345 353 356 5 20 41 74 95 117 136 146 143 144 154 158 157 154 167 162 162 164 98 39 216 209 227 311 298 230 215 187 184 248 205 189 218 196 214 217 224 218 194 177 236 342 245 209 212 237 261 272 281 328 310
3 6 17 40 41 63 80 98 112 124 135 142 146 148 146 151 151 134 155 183 158 97 210 215 290 196 8 269 205 173 313 278 286 235 217 215 187 225 207 232 236 232 185 184 200 245 314 291 290 327 320 299 260 289
12 16 29 47 58 74 85 100 114 122 128 126 133 145 144 147 133 100 141 170 81 104 139 169 205 183 205 191 142 193 274 261 197 248 202 193 206 263 357 213 266 255 251 238 232 231 267 286 26 24 348 327 276 194
19 32 33 52 79 80 82 96 109 114 115 110 116 129 135 139 119 85 93 336 40 83 253 172 124 176 177 190 201 192 279 281 231 220 251 233 198 236 215 228 238 256 266 277 270 248 255 347 340 271 328 312 333 142
32 44 47 48 74 88 88 89 116 115 113 107 99 114 132 137 153 65 143 150 187 225 253 112 160 170 165 156 190 198 209 245 265 243 246 217 215 240 251 227 250 254 257 270 276 258 262 288 3 83 27 334 6 338
44 48 60 61 76 82 80 86 94 111 102 94 91 90 92 87 91 77 38 69 327 313 29 29 86 163 177 162 150 196 206 234 216 234 216 205 230 190 240 243 246 262 273 279 282 286 278 235 321 327 39 341 331 295
56 53 56 64 84 99 81 94 94 100 104 110 117 126 100 58 86 102 334 325 80 246 140 40 263 214 177 228 179 171 184 216 245 232 287 333 223 213 231 284 333 353 343 0 331 349 17 338 78 313 53 6 308 48
62 62 59 71 79 96 99 97 104 114 130 152 148 62 61 55 113 154 28 86 280 37 78 92 314 315 338 323 138 35 38 225 216 212 249 230 255 102 17 8 7 358 355 1 5 22 19 23 17 56 58 35 65 94
81 83 74 76 81 87 95 102 98 57 5 21 57 41 115 113 246 37 100 159 129 126 186 207 207 196 20 26 4 150 175 260 202 183 192 202 193 8 357 5 7 5 2 21 9 30 32 24 353 90 65 59 65 71
97 96 95 92 85 77 61 37 339 293 33 54 108 121 146 26 57 79 104 102 190 219 165 184 111 90 124 229 258 178 230 254 177 134 130 143 32 354 353 2 13 16 34 41 45 55 53 65 77 85 83 81 81 84
99 100 92 86 83 62 40 36 32 26 322 144 106 74 23 34 69 144 160 183 193 29 170 146 129 136 158 54 38 263 208 221 142 110 82 59 4 359 1 21 35 41 54 64 63 66 70 73 74 85 89 85 87 85
101 92 85 74 61 52 44 17 351 320 9 52 36 59 6 46 37 32 348 348 346 318 342 113 133 189 125 136 197 237 209 284 197 62 66 21 7 14 27 36 52 52 57 66 69 72 74 77 78 78 82 88 90 87
103 91 81 53 42 47 38 11 346 59 51 50 19 41 46 344 51 13 360 335 2 315 312 87 50 44 29 11 285 295 129 69 34 54 27 20 23 35 46 52 63 70 72 74 76 79 80 80 78 77 75 80 82 85
121 96 49 55 50 34 357 54 32 55 55 64 38 12 347 12 16 1 0 343 344 325 292 330 68 80 82 347 31 7 56 40 41 33 21 37 39 47 56 65 69 74 76 78 77 77 77 76 78 79 76 74 77 82
225 94 225 11 71 49 26 61 49 52 52 41 75 44 15 21 353 355 344 337 312 285 35 43 55 11 326 50 57 17 32 52 40 42 33 34 52 61 68 74 74 76 76 75 76 74 76 79 80 77 78 75 77 74
76 139 45 17 348 27 38 45 69 63 73 27 53 42 40 22 7 7 1 355 349 42 19 53 12 37 29 28 46 9 45 74 57 47 48 50 49 50 57 69 70 74 77 77 78 79 78 79 81 83 88 91 91 87
114 94 23 7 350 82 67 46 48 86 70 100 65 47 35 43 29 15 23 17 33 43 74 57 53 38 40 20 1 353 28 77 81 64 51 47 52 56 60 62 66 67 67 66 65 64 61 58 62 66 67 65 63 66
75 38 330 323 346 77 78 62 71 79 70 127 132 93 69 43 27 33 34 36 54 64 54 48 43 31 15 4 4 351 22 95 94 85 69 54 47 53 54 61 62 63 64 62 61 61 64 63 57 55 55 59 62 50
55 302 315 333 59 58 66 48 65 86 136 79 114 75 60 60 44 37 42 36 54 44 72 70 71 57 45 39 37 44 43 52 61 75 86 79 61 60 58 54 58 61 63 60 62 59 56 58 64 68 67 56 43 60
79 305 21 8 69 61 58 14 72 114 60 98 58 52 35 32 29 31 38 38 59 54 46 49 57 63 55 46 49 54 60 63 61 58 53 57 62 62 62 60 61 63 62 63 63 61 53 46 54 49 57 81 77 54
358 24 36 32 74 55 32 360 56 29 56 63 39 42 36 42 36 52 68 43 52 35 73 71 63 59 67 64 64 57 54 66 69 67 66 65 65 62 62 59 57 63 64 59 61 64 62 58 45 52 50 46 57 62
32 47 35 41 46 85 76 41 39 68 44 38 56 60 41 41 72 68 69 60 40 41 33 57 94 88 73 60 54 49 48 65 77 76 73 75 71 62 56 53 51 52 60 65 59 57 56 55 60 56 36 43 48 50
71 16 2 55 27 74 71 63 35 65 59 50 76 60 49 29 65 72 84 92 56 33 64 55 54 66 77 74 67 60 52 53 58 56 32 62 106 105 85 71 57 40 26 56 63 57 56 46 52 68 66 42 30 53
71 24 31 32 36 51 48 74 59 58 66 66 55 59 10 53 64 71 70 79 69 45 32 56 88 84 69 62 68 52 27 54 73 66 47 31 26 46 59 71 70 51 33 26 35 63 59 57 49 46 72 71 39 38
63 65 47 15 43 90 101 67 62 58 51 40 39 22 38 76 78 81 95 46 85 56 45 44 69 84 90 87 78 69 62 56 67 79 73 63 58 48 45 61 65 33 29 42 36 39 52 57 51 41 52 55 47 31
56 43 66 38 63 39 74 55 45 41 49 345 11 33 43 31 69 48 87 92 96 93 81 65 53 59 62 57 58 82 107 119 120 114 104 87 67 65 85 85 65 67 70 27 41 37 35 42 39 55 34 50 35 36
63 87 83 35 57 53 32 34 61 54 337 322 45 72 88 50 42 113 111 115 125 120 109 105 103 108 100 82 58 44 24 14 70 83 64 81 82 62 51 44 63 19 17 97 95 62 67 51 55 9 5 7 3 352
57 43 93 47 53 58 39 40 82 61 66 74 93 104 95 88 42 50 111 127 114 90 82 78 55 69 54 85 89 77 51 35 21 12 49 70 69 52 43 39 37 41 15 23 11 63 40 339 308 177 18 356 18 349
77 69 75 67 79 85 108 125 109 77 66 63 64 86 108 120 93 32 46 64 93 127 134 116 99 73 73 37 30 87 113 80 55 38 41 77 65 57 46 20 26 348 7 12 356 19 5 330 343 347 348 342 352 336
39 64 110 102 108 139 227 209 86 88 133 97 83 109 172 177 124 130 125 183 187 136 48 81 131 109 81 81 85 75 40 107 118 88 41 30 37 23 11 7 349 347 4 330 321 328 341 336 326 328 330 328 346 327
99 84 92 99 122 151 164 206 108 115 97 94 83 22 41 12 82 96 121 343 360 85 118 86 86 91 83 53 76 105 118 80 71 79 74 63 30 358 312 331 2 337 321 308 313 312 308 316 322 332 317 309 319 327